Location: Newark
(42.7133°N, 87.7910°W)
Time: 04:40:05
(UTC+00:00)

Tiros 1 - Pass Details

Date: 22 September 2019
Orbit: 630 x 664 km, 48.4° (Epoch: 14 October)

Event Time Altitude Azimuth Distance (km) Brightness Sun altitude
Rises 23:16:04 0° 296° (WNW) 2,947 11.7 5.2°
Reaches altitude 10° 23:18:25 10° 295° (WNW) 2,030 11.0 4.8°
Maximum altitude 23:23:05 77° 210° (SSW) 653 7.4 3.9°
Drops below altitude 10° 23:27:42 10° 124° (SE) 2,005 9.2 3.0°
Sets 23:30:00 0° 123° (ESE) 2,908 10.0 2.6°
